Weather History for Clinton-Sherman, OK

Change the Weather History Date:

Thursday, May 1, 2014

  Actual Average Record
Temperature  
Mean Temperature 53 °F -  
Max Temperature 71 °F 74 °F 93 °F (2002)
Min Temperature 37 °F 50 °F 37 °F (2014)
Degree Days  
Heating Degree Days 12    
Growing Degree Days 3 (Base 50)    
Moisture  
Dew Point 25 °F    
Average Humidity 36    
Maximum Humidity 57    
Minimum Humidity 18    
Precipitation  
Precipitation 0.00 in - - ()
Sea Level Pressure  
Sea Level Pressure 30.12 in    
Wind  
Wind Speed 10 mph (NW)    
Max Wind Speed 18 mph    
Max Gust Speed 34 mph    
Visibility 10 miles    
Events      
Averages and records for this station are not official NWS values.
T = Trace of Precipitation, MM = Missing Value Source: NWS Daily Summary

Daily Weather History Graph

Daily Weather History Graph

Search for Another Location

Airport:

Trip Planner

Search our weather history database for the weather conditions in past years. The results will help you decide how hot, cold, wet, or windy it might be!

Date:

Astronomy

May. 01, 2014 Rise Set
Actual Time 6:45 AM CDT 8:22 PM CDT
Civil Twilight 6:18 AM CDT 8:50 PM CDT
Nautical Twilight 5:45 AM CDT 9:22 PM CDT
Astronomical Twilight 5:11 AM CDT 9:57 PM CDT
Moon 8:36 AM CDT (5/1) 10:55 PM CDT (5/1)
Length of Visible Light 14h 32m
Length of Day
13h 37m
Waxing Crescent, 7% of the Moon is Illuminated
May 1
Waxing Crescent
May 6
First Quarter
May 14
Full
May 21
Last Quarter
May 28
New

Hourly Weather History & Observations

Time (CDT) Temp. Windchill Dew Point Humidity Pressure Visibility Wind Dir Wind Speed Gust Speed Precip Events Conditions
12:53 AM 39.9 °F 34.5 °F 25.0 °F 55% 30.18 in 10.0 mi WNW 8.1 mph - N/A   Clear
1:53 AM 39.9 °F 35.1 °F 24.1 °F 53% 30.19 in 10.0 mi NW 6.9 mph - N/A   Clear
2:53 AM 37.9 °F 30.9 °F 24.1 °F 57% 30.19 in 10.0 mi NW 10.4 mph - N/A   Clear
3:53 AM 39.9 °F 33.4 °F 24.1 °F 53% 30.18 in 10.0 mi NW 10.4 mph - N/A   Clear
4:53 AM 39.0 °F 32.8 °F 23.0 °F 53% 30.18 in 10.0 mi WNW 9.2 mph - N/A   Clear
5:53 AM 37.9 °F 32.1 °F 24.1 °F 57% 30.18 in 10.0 mi West 8.1 mph - N/A   Clear
6:53 AM 41.0 °F 34.7 °F 23.0 °F 49% 30.19 in 10.0 mi WNW 10.4 mph - N/A   Clear
7:53 AM 48.0 °F - 24.1 °F 39% 30.19 in 10.0 mi WNW 12.7 mph - N/A   Clear
8:53 AM 53.1 °F - 26.1 °F 35% 30.19 in 10.0 mi NW 11.5 mph 19.6 mph N/A   Clear
9:53 AM 57.0 °F - 27.0 °F 32% 30.19 in 10.0 mi NW 11.5 mph - N/A   Clear
10:53 AM 61.0 °F - 28.9 °F 30% 30.19 in 10.0 mi NW 17.3 mph 27.6 mph N/A   Clear
11:53 AM 64.0 °F - 26.1 °F 24% 30.17 in 10.0 mi WNW 16.1 mph 23.0 mph N/A   Clear
12:53 PM 64.9 °F - 27.0 °F 24% 30.14 in 10.0 mi NW 8.1 mph 23.0 mph N/A   Clear
1:53 PM 66.9 °F - 25.0 °F 21% 30.11 in 10.0 mi NW 15.0 mph 26.5 mph N/A   Clear
2:53 PM 69.1 °F - 26.1 °F 20% 30.09 in 10.0 mi NNW 15.0 mph 23.0 mph N/A   Clear
3:53 PM 69.1 °F - 23.0 °F 18% 30.06 in 10.0 mi NNW 11.5 mph 34.5 mph N/A   Partly Cloudy
4:53 PM 68.0 °F - 23.0 °F 18% 30.04 in 10.0 mi NW 13.8 mph 23.0 mph N/A   Scattered Clouds
5:53 PM 69.1 °F - 23.0 °F 18% 30.03 in 10.0 mi NW 18.4 mph 26.5 mph N/A   Clear
6:53 PM 64.9 °F - 24.1 °F 21% 30.03 in 10.0 mi NNW 11.5 mph 21.9 mph N/A   Scattered Clouds
7:53 PM 61.0 °F - 28.0 °F 29% 30.03 in 10.0 mi North 4.6 mph - N/A   Mostly Cloudy
8:53 PM 57.0 °F - 26.1 °F 30% 30.05 in 10.0 mi North 5.8 mph - N/A   Partly Cloudy
9:53 PM 54.0 °F - 26.1 °F 34% 30.06 in 10.0 mi NW 3.5 mph - N/A   Clear
10:53 PM 48.0 °F - 26.1 °F 42% 30.06 in 10.0 mi North 5.8 mph - N/A   Clear
11:53 PM 45.0 °F 41.8 °F 28.0 °F 52% 30.07 in 10.0 mi North 5.8 mph - N/A   Partly Cloudy